St. Cloud, MN

3:58 PM CST on February 19, 2018 (GMT -0600)
Saint Cloud Regional

Weather History for KSTC - October, 2014

Change the Weather History Date:

Tuesday, October 21, 2014

  Actual Average Record
Temperature  
Mean Temperature 48 °F 44 °F  
Max Temperature 60 °F 54 °F 87 °F (1947)
Min Temperature 36 °F 33 °F 11 °F (1913)
Degree Days  
Heating Degree Days 17 21  
Month to date heating degree days 337 363  
Since 1 July heating degree days 498 649  
Cooling Degree Days 0 0  
Month to date cooling degree days 0 0  
Year to date cooling degree days 597 463  
Moisture  
Dew Point 37 °F    
Average Humidity 66    
Maximum Humidity 85    
Minimum Humidity 46    
Precipitation  
Precipitation 0.00 in 0.07 in 0.83 in (2009)
Month to date precipitation 0.45 1.86  
Year to date precipitation 33.88 24.90  
Snow  
Snow 0.00 in 0.00 in 3.90 in (2002)
Month to date snowfall 0.0 0.3  
Since 1 July snowfall 0.0 0.3  
Since 1 September snowfall 0.0 0.3  
Snow Depth 0.00 in    
Sea Level Pressure  
Sea Level Pressure 30.18 in    
Wind  
Wind Speed 9 mph (ESE)    
Max Wind Speed 18 mph    
Max Gust Speed 24 mph    
Visibility 10 miles    
Events      
T = Trace of Precipitation, MM = Missing Value Source: NWS Daily Summary

Daily Weather History Graph

Daily Weather History Graph

Search for Another Location

Airport or City:

Trip Planner

Search our weather history database for the weather conditions in past years. The results will help you decide how hot, cold, wet, or windy it might be!

Date:

Astronomy

Oct. 21, 2014 Rise Set
Actual Time 7:40 AM CDT 6:20 PM CDT
Civil Twilight 7:10 AM CDT 6:50 PM CDT
Nautical Twilight 6:35 AM CDT 7:24 PM CDT
Astronomical Twilight 6:01 AM CDT 7:59 PM CDT
Moon 5:19 AM CDT (10/21) 5:19 PM CDT (10/21)
Length of Visible Light 11h 39m
Length of Day
10h 39m
Waning Crescent, 5% of the Moon is Illuminated
Oct 21
Waning Crescent
Oct 23
New
Oct 30
First Quarter
Nov 6
Full
Nov 14
Last Quarter

Hourly Weather History & Observations

Time (CDT) Temp. Windchill Dew Point Humidity Pressure Visibility Wind Dir Wind Speed Gust Speed Precip Events Conditions
12:53 AM 39.9 °F - 36.0 °F 86% 30.14 in 10.0 mi Calm Calm - N/A   Clear
1:53 AM 37.9 °F 35.5 °F 34.0 °F 86% 30.16 in 10.0 mi NE 3.5 mph - N/A   Clear
2:53 AM 41.0 °F 39.0 °F 36.0 °F 82% 30.17 in 10.0 mi ENE 3.5 mph - N/A   Clear
3:53 AM 41.0 °F 39.0 °F 36.0 °F 82% 30.18 in 10.0 mi East 3.5 mph - N/A   Clear
4:53 AM 39.9 °F 37.8 °F 35.1 °F 83% 30.18 in 10.0 mi East 3.5 mph - N/A   Clear
5:53 AM 39.0 °F 36.8 °F 35.1 °F 86% 30.19 in 10.0 mi East 3.5 mph - N/A   Clear
6:53 AM 37.9 °F 35.5 °F 34.0 °F 86% 30.20 in 10.0 mi East 3.5 mph - N/A   Clear
7:53 AM 37.9 °F 34.4 °F 34.0 °F 86% 30.22 in 10.0 mi East 4.6 mph - N/A   Clear
8:53 AM 42.1 °F 37.1 °F 37.0 °F 82% 30.22 in 10.0 mi East 8.1 mph - N/A   Clear
9:53 AM 48.9 °F - 39.0 °F 69% 30.22 in 10.0 mi ESE 8.1 mph - N/A   Clear
10:53 AM 52.0 °F - 39.0 °F 61% 30.22 in 10.0 mi ESE 12.7 mph 21.9 mph N/A   Clear
11:53 AM 55.0 °F - 39.0 °F 55% 30.22 in 10.0 mi ESE 10.4 mph - N/A   Clear
12:53 PM 57.0 °F - 39.9 °F 53% 30.20 in 10.0 mi SE 11.5 mph - N/A   Clear
1:53 PM 59.0 °F - 39.0 °F 48% 30.18 in 10.0 mi SSE 17.3 mph - N/A   Clear
2:53 PM 59.0 °F - 39.0 °F 48% 30.16 in 10.0 mi SE 16.1 mph 20.7 mph N/A   Clear
3:53 PM 60.1 °F - 39.0 °F 46% 30.14 in 10.0 mi ESE 11.5 mph - N/A   Clear
4:53 PM 59.0 °F - 39.0 °F 48% 30.15 in 10.0 mi SE 13.8 mph 20.7 mph N/A   Clear
5:53 PM 57.0 °F - 39.0 °F 51% 30.15 in 10.0 mi SE 10.4 mph - N/A   Clear
6:53 PM 55.0 °F - 39.0 °F 55% 30.15 in 10.0 mi ESE 6.9 mph - N/A   Clear
7:53 PM 53.1 °F - 37.9 °F 57% 30.16 in 10.0 mi ESE 9.2 mph - N/A   Clear
8:53 PM 50.0 °F - 37.9 °F 63% 30.17 in 10.0 mi ESE 6.9 mph - N/A   Clear
9:53 PM 50.0 °F - 37.9 °F 63% 30.18 in 10.0 mi ESE 9.2 mph - N/A   Clear
10:53 PM 50.0 °F - 37.9 °F 63% 30.17 in 10.0 mi SE 9.2 mph - N/A   Clear
11:53 PM 48.9 °F - 37.9 °F 66% 30.17 in 10.0 mi SE 11.5 mph - N/A   Clear